Location: Buffign�court
(47.8126°N, 6.0176°E)
Time: 19:55:44
(UTC+00:00)

Cosmos 1464 Rocket - Pass Details

Date: 16 June 2021
Orbit: 953 x 1001 km, 82.9° (Epoch: 02 August)

Event Time Altitude Azimuth Distance (km) Brightness Sun altitude
Rises 22:23:58 0° 353° (N) 3,715 8.7 -16.9°
Reaches altitude 10° 22:26:34 10° 358° (N) 2,768 7.6 -17.1°
Maximum altitude 22:32:48 55° 76° (ENE) 1,188 4.4 -17.4°
Enters shadow 22:36:28 25° 144° (SE) 1,896 5.0 -17.5°
